EN

Hourly Weather Barnab

Today, 28 February, Sunday

Time Temperature Precipitation Wind Pressure Humidity
00:00 -8°C° 0 mm 2 mps 605 mmHg 72%
01:00 -8°C° 0 mm 2 mps 604 mmHg 76%
02:00 -8°C° 0 mm 2 mps 604 mmHg 79%
03:00 -8°C° 0 mm 2 mps 604 mmHg 83%
04:00 -8°C° 0 mm 2 mps 604 mmHg 83%
05:00 -8°C° 0 mm 2 mps 604 mmHg 83%
06:00 -8°C° 0 mm 2 mps 604 mmHg 83%
07:00 -6°C° 0 mm 2 mps 605 mmHg 83%
08:00 -5°C° 0 mm 2 mps 605 mmHg 83%
09:00 -3°C° 0 mm 2 mps 606 mmHg 83%
10:00 -2°C° 0 mm 3 mps 606 mmHg 85%
11:00 -1°C° 0 mm 3 mps 606 mmHg 87%
12:00 -1°C° 0 mm 3 mps 606 mmHg 89%
13:00 -1°C° 0 mm 3 mps 606 mmHg 88%
14:00 -1°C° 0 mm 3 mps 606 mmHg 87%
15:00 -1°C° 0 mm 3 mps 605 mmHg 87%
16:00 -2°C° 0 mm 3 mps 605 mmHg 88%
17:00 -5°C° 0 mm 3 mps 605 mmHg 90%
18:00 -5°C° 0 mm 2 mps 604 mmHg 92%
19:00 -6°C° 0 mm 2 mps 604 mmHg 91%
20:00 -6°C° 0 mm 2 mps 605 mmHg 89%
21:00 -6°C° 0 mm 2 mps 605 mmHg 88%
22:00 -6°C° 0 mm 2 mps 605 mmHg 88%
23:00 -6°C° 0 mm 2 mps 605 mmHg 88%

Tomorrow, 1 March, Monday

Time Temperature Precipitation Wind Pressure Humidity
00:00 -6°C° 0 mm 2 mps 605 mmHg 88%
01:00 -6°C° 0.3 mm 2 mps 605 mmHg 89%
02:00 -5°C° 0.3 mm 2 mps 606 mmHg 91%
03:00 -5°C° 0.3 mm 2 mps 606 mmHg 93%
04:00 -5°C° 0.7 mm 2 mps 606 mmHg 93%
05:00 -5°C° 0.7 mm 2 mps 607 mmHg 94%
06:00 -5°C° 0.7 mm 2 mps 607 mmHg 95%
07:00 -5°C° 0.5 mm 2 mps 608 mmHg 94%
08:00 -4°C° 0.5 mm 2 mps 608 mmHg 93%
09:00 -4°C° 0.5 mm 2 mps 609 mmHg 93%
10:00 -4°C° 0.4 mm 2 mps 609 mmHg 91%
11:00 -3°C° 0.4 mm 2 mps 609 mmHg 90%
12:00 -4°C° 0.4 mm 3 mps 610 mmHg 88%
13:00 -3°C° 0.2 mm 2 mps 610 mmHg 84%
14:00 -3°C° 0.2 mm 2 mps 610 mmHg 80%
15:00 -3°C° 0.2 mm 2 mps 610 mmHg 76%
16:00 -5°C° 0.1 mm 2 mps 609 mmHg 81%
17:00 -6°C° 0.1 mm 1 mps 609 mmHg 86%
18:00 -8°C° 0.1 mm 1 mps 608 mmHg 91%
19:00 -9°C° 0 mm 1 mps 608 mmHg 87%
20:00 -9°C° 0 mm 1 mps 608 mmHg 83%
21:00 -12°C° 0 mm 2 mps 608 mmHg 79%
22:00 -12°C° 0 mm 2 mps 609 mmHg 81%
23:00 -12°C° 0 mm 2 mps 609 mmHg 84%

Day after tomorrow, 2 March, Tuesday

Time Temperature Precipitation Wind Pressure Humidity
00:00 -12°C° 0 mm 2 mps 609 mmHg 86%
01:00 -12°C° 0.3 mm 2 mps 609 mmHg 89%
02:00 -10°C° 0.3 mm 2 mps 609 mmHg 92%
03:00 -9°C° 0.3 mm 2 mps 610 mmHg 95%
04:00 -10°C° 0.1 mm 2 mps 610 mmHg 95%
05:00 -10°C° 0.1 mm 2 mps 610 mmHg 96%
06:00 -10°C° 0.1 mm 2 mps 610 mmHg 96%
07:00 -9°C° 0.1 mm 2 mps 610 mmHg 95%
08:00 -8°C° 0.1 mm 2 mps 611 mmHg 95%
09:00 -7°C° 0.1 mm 3 mps 612 mmHg 94%
10:00 -7°C° 0.1 mm 3 mps 611 mmHg 92%
11:00 -6°C° 0.1 mm 3 mps 611 mmHg 90%
12:00 -5°C° 0.1 mm 3 mps 611 mmHg 88%
13:00 -5°C° 0.1 mm 3 mps 611 mmHg 88%
14:00 -6°C° 0.1 mm 3 mps 610 mmHg 88%
15:00 -6°C° 0.1 mm 3 mps 610 mmHg 89%
16:00 -6°C° 0 mm 2 mps 609 mmHg 91%
17:00 -8°C° 0 mm 2 mps 608 mmHg 94%
18:00 -10°C° 0 mm 2 mps 607 mmHg 96%
19:00 -10°C° 0 mm 2 mps 607 mmHg 93%
20:00 -12°C° 0 mm 2 mps 607 mmHg 91%
21:00 -13°C° 0 mm 2 mps 607 mmHg 88%
22:00 -13°C° 0 mm 2 mps 606 mmHg 84%
23:00 -13°C° 0 mm 2 mps 606 mmHg 80%

3 March, Wednesday

Time Temperature Precipitation Wind Pressure Humidity
00:00 -13°C° 0 mm 2 mps 606 mmHg 76%
01:00 -13°C° 0 mm 2 mps 606 mmHg 74%
02:00 -13°C° 0 mm 2 mps 605 mmHg 72%
03:00 -13°C° 0 mm 2 mps 605 mmHg 70%
04:00 -13°C° 0 mm 2 mps 605 mmHg 66%
05:00 -13°C° 0 mm 2 mps 605 mmHg 62%
06:00 -13°C° 0 mm 2 mps 605 mmHg 57%
07:00 -12°C° 0 mm 3 mps 606 mmHg 59%
08:00 -9°C° 0 mm 3 mps 606 mmHg 61%
09:00 -8°C° 0 mm 3 mps 607 mmHg 63%
10:00 -7°C° 0 mm 3 mps 607 mmHg 68%
11:00 -7°C° 0 mm 3 mps 607 mmHg 73%
12:00 -6°C° 0 mm 3 mps 607 mmHg 79%
13:00 -6°C° 0.1 mm 3 mps 607 mmHg 81%
14:00 -6°C° 0.1 mm 3 mps 606 mmHg 83%
15:00 -6°C° 0.1 mm 3 mps 606 mmHg 85%
16:00 -7°C° 0.1 mm 2 mps 606 mmHg 88%
17:00 -8°C° 0.1 mm 2 mps 605 mmHg 91%
18:00 -10°C° 0.1 mm 2 mps 605 mmHg 94%
19:00 -10°C° 0 mm 2 mps 605 mmHg 92%
20:00 -12°C° 0 mm 2 mps 605 mmHg 91%
21:00 -13°C° 0 mm 2 mps 605 mmHg 89%
22:00 -13°C° 0 mm 2 mps 606 mmHg 89%
23:00 -13°C° 0 mm 2 mps 606 mmHg 88%

4 March, Thursday

Time Temperature Precipitation Wind Pressure Humidity
00:00 -14°C° 0 mm 2 mps 606 mmHg 88%
01:00 -14°C° 0 mm 2 mps 606 mmHg 87%
02:00 -14°C° 0 mm 2 mps 606 mmHg 85%
03:00 -15°C° 0 mm 2 mps 606 mmHg 84%
04:00 -15°C° 0 mm 2 mps 606 mmHg 83%
05:00 -15°C° 0 mm 2 mps 606 mmHg 81%
06:00 -15°C° 0 mm 2 mps 606 mmHg 80%
07:00 -13°C° 0 mm 2 mps 608 mmHg 77%
08:00 -9°C° 0 mm 1 mps 609 mmHg 74%
09:00 -7°C° 0 mm 1 mps 610 mmHg 71%
10:00 -6°C° 0 mm 1 mps 611 mmHg 73%
11:00 -6°C° 0 mm 2 mps 611 mmHg 75%
12:00 -5°C° 0 mm 2 mps 611 mmHg 77%
13:00 -5°C° 0.1 mm 2 mps 611 mmHg 79%
14:00 -5°C° 0.1 mm 2 mps 611 mmHg 80%
15:00 -4°C° 0.1 mm 2 mps 611 mmHg 82%
16:00 -6°C° 0.1 mm 2 mps 611 mmHg 86%
17:00 -6°C° 0.1 mm 1 mps 610 mmHg 91%
18:00 -8°C° 0.1 mm 1 mps 610 mmHg 95%
19:00 -9°C° 0.1 mm 2 mps 610 mmHg 95%
20:00 -10°C° 0.1 mm 2 mps 610 mmHg 96%
21:00 -10°C° 0.1 mm 2 mps 610 mmHg 96%
22:00 -12°C° 0 mm 2 mps 609 mmHg 94%
23:00 -12°C° 0 mm 2 mps 609 mmHg 93%

5 March, Friday

Time Temperature Precipitation Wind Pressure Humidity
00:00 -13°C° 0 mm 2 mps 609 mmHg 91%
01:00 -13°C° 0 mm 2 mps 608 mmHg 87%
02:00 -13°C° 0 mm 2 mps 608 mmHg 83%
03:00 -13°C° 0 mm 2 mps 608 mmHg 79%
04:00 -13°C° 0 mm 2 mps 608 mmHg 75%
05:00 -13°C° 0 mm 2 mps 608 mmHg 71%
06:00 -13°C° 0 mm 2 mps 607 mmHg 67%
07:00 -10°C° 0 mm 2 mps 608 mmHg 66%
08:00 -8°C° 0 mm 2 mps 609 mmHg 65%
09:00 -3°C° 0 mm 1 mps 610 mmHg 65%
10:00 -4°C° 0 mm 2 mps 610 mmHg 68%
11:00 -3°C° 0 mm 2 mps 610 mmHg 71%
12:00 -2°C° 0 mm 2 mps 610 mmHg 74%
13:00 -2°C° 0 mm 2 mps 610 mmHg 75%
14:00 -2°C° 0 mm 2 mps 610 mmHg 76%
15:00 -2°C° 0 mm 2 mps 610 mmHg 77%
16:00 -4°C° 0 mm 2 mps 609 mmHg 79%
17:00 -4°C° 0 mm 1 mps 608 mmHg 82%
18:00 -7°C° 0 mm 1 mps 607 mmHg 84%
19:00 -7°C° 0 mm 1 mps 607 mmHg 72%
20:00 -8°C° 0 mm 2 mps 607 mmHg 60%
21:00 -8°C° 0 mm 2 mps 607 mmHg 49%
22:00 -8°C° 0 mm 2 mps 607 mmHg 46%
23:00 -8°C° 0 mm 2 mps 607 mmHg 43%
Show more

We Need Your Consent

Meteoprog and our Service Providers may store and access personal data such as cookies, device identifiers or other similar technologies on your device and process such data to personalise content and ads, as well as provide social media features and to analyse the traffic.

  • Store and/or access information on your device

    Cookies, device identifiers or other information can be stored or accessed on your device for the purposes indicated above.

  • Personalised ads and content, ad and content measurement, audience insights, and products development

    Ads and content can be personalised based on a profile. More data can be added to better personalise ads and content. Ad and content performance can be measured. Insights about the audience who saw the ads and content can be derived. Such data can be used to develop or improve user’s experience, systems and software.

By clicking ‘I Agree’ you will allow the use of indicated cookies, device identifiers, web beacons or other similar technologies. Your settings can be changed in the browser on your device.

For certain purposes, legitimate interests may be relied on, rather than consent. You can read more about this in our Privacy and Cookie Policy.